[[{"header":{"parameterUnit":"m.s-1","parameterCategory":1,"la1":30.2991,"la2":30.254,"lo1":-89.0895,"lo2":-89.0444,"dy":0.0017,"dx":0.0017,"nx":28,"ny":28,"refTime":"2025-02-12T09:00:00:Z","depth":0,"parameterNumber":2,"parameterNumberName":"U-component_of_WINDS"},"data":[0,0,0,0,0,0,0,0,0,0,0,0,0,0,0,0,0,0,0,0,0,0,0,0,0,0,0,0,0,0,0,0,0,0,0,0,0,0,0,0,0,0,0,0,0,0,0,0,0,0,0,0,0,0,0,0,0,0,0.1615,0.1615,0,0.1605,0.1605,0.1605,0.1602,0.1603,0.1603,0.1603,0.1592,0.1592,0.1592,0,0,0,0,0,0,0,0,0,0,0,0,0,0.1629,0.1629,0.1615,0.1615,0.1615,0.1605,0.1605,0.1605,0.1602,0.1603,0.1603,0.1603,0.1593,0.1592,0.1592,0,0,0,0,0,0,0,0,0,0,0,0,0,0.1622,0.1629,0.1615,0.1612,0.1612,0.1605,0.1605,0.1605,0.1602,0.1603,0.1603,0.1603,0.1593,0.1592,0.1592,0.1587,0,0,0.159,0.159,0,0,0,0,0,0,0,0,0.1622,0.1621,0.1613,0.1612,0.1612,0.1605,0.1607,0.1599,0.1602,0.1606,0.1603,0.1603,0.1597,0.1596,0.1594,0.1587,0.1586,0.159,0.159,0.159,0.159,0,0,0,0,0,0,0,0.1623,0.1622,0.1611,0.1613,0.1612,0.1611,0.161,0.1605,0.1601,0.1606,0.1605,0.1604,0.1596,0.1594,0.1594,0.1586,0.159,0.159,0.159,0.1589,0.1574,0.1574,0,0,0,0,0,0,0.1624,0.1622,0.1611,0.1611,0.1617,0.1611,0.161,0.1607,0.1601,0.16,0.1604,0.1604,0.1595,0.1594,0.1593,0.1587,0.159,0.1589,0.1589,0.1574,0.1574,0.1574,0,0,0,0,0,0,0.1624,0.1623,0.1612,0.1616,0.1615,0.161,0.1608,0.1607,0.1605,0.16,0.1599,0.1603,0.1595,0.1594,0.1589,0.1587,0.1589,0.1589,0.1574,0.1574,0.1574,0.1575,0,0,0,0,0,0,0.1625,0.1623,0.1622,0.1616,0.1615,0.1608,0.1608,0.1607,0.1604,0.1604,0.1599,0.1598,0.1595,0.1589,0.1588,0.1586,0.1588,0.1574,0.1574,0.1574,0.1575,0.1575,0.1575,0,0,0,0,0,0.1625,0.1623,0.1622,0.162,0.1613,0.1608,0.1607,0.1604,0.1604,0.1602,0.1599,0.1598,0.1587,0.1589,0.1587,0.1585,0.1575,0.1574,0.1574,0.1575,0.1575,0.1575,0,0,0,0,0,0,0.1628,0.1622,0.1621,0.1616,0.1613,0.1607,0.1605,0.1604,0.16,0.16,0.1596,0.1595,0.159,0.1587,0.1589,0.158,0.1581,0.158,0.1582,0.1582,0.1582,0.1583,0.1588,0,0,0,0,0,0.1628,0.1624,0.1619,0.1616,0.1614,0.161,0.1607,0.1605,0.1601,0.16,0.1596,0.1592,0.1587,0.1584,0.158,0.1575,0.1573,0.1572,0.1572,0.1572,0.1572,0.1568,0.1567,0.1573,0.1573,0.1573,0,0,0.1628,0.1624,0.1622,0.1616,0.1613,0.1609,0.1609,0.1605,0.1602,0.1599,0.1594,0.1591,0.1586,0.158,0.1578,0.1578,0.157,0.1572,0.1572,0.1571,0.1568,0.1567,0.1567,0.1573,0.1573,0.1573,0,0,0.1626,0.1623,0.162,0.1616,0.1612,0.1609,0.1608,0.1602,0.16,0.1595,0.1593,0.1589,0.1581,0.1578,0.1575,0.157,0.1569,0.1569,0.1568,0.1565,0.1564,0.1564,0.1562,0.1561,0.1569,0.1569,0.1569,0,0.1627,0.1621,0.1618,0.1614,0.1611,0.1609,0.1605,0.1602,0.1595,0.1593,0.1594,0.1584,0.158,0.1573,0.1572,0.157,0.1568,0.157,0.1564,0.1564,0.1564,0.1562,0.1561,0.1569,0.1569,0.1569,0.1569,0,0.1622,0.1618,0.1616,0.161,0.1607,0.1603,0.1599,0.1596,0.1594,0.1591,0.1585,0.158,0.1575,0.1573,0.1571,0.1566,0.1566,0.1565,0.1566,0.1563,0.1561,0.1561,0.1569,0.1569,0.1569,0.1569,0,0,0.1623,0.1615,0.1614,0.1611,0.1605,0.1601,0.1597,0.1591,0.1589,0.1584,0.158,0.1573,0.1573,0.1569,0.1567,0.1564,0.156,0.1563,0.1563,0.1563,0.1553,0.1554,0.1553,0.1559,0.1559,0.1559,0.1554,0,0.162,0.1613,0.1609,0.1603,0.1599,0.1596,0.1592,0.1587,0.1584,0.158,0.1576,0.1571,0.1571,0.1569,0.1565,0.1561,0.1558,0.1561,0.1555,0.1555,0.1556,0.1552,0.1553,0.1549,0.1553,0.1553,0.1553,0,0.1617,0.1612,0.1606,0.1599,0.1597,0.1594,0.1588,0.1584,0.1579,0.1576,0.1572,0.157,0.1564,0.1565,0.1557,0.1559,0.1556,0.1554,0.1553,0.1553,0.1554,0.1552,0.1547,0.1547,0.1552,0.1552,0.1552,0,0.1617,0.161,0.1604,0.1602,0.1595,0.1592,0.1589,0.1583,0.158,0.1575,0.1572,0.1567,0.1563,0.1559,0.1554,0.1555,0.1547,0.1547,0.1544,0.1544,0.1543,0.1543,0.1538,0.1541,0.1541,0.1541,0.1541,0,0.1615,0.1611,0.1605,0.1602,0.1597,0.1592,0.1588,0.1584,0.1579,0.1575,0.1571,0.1567,0.1562,0.1557,0.1553,0.1547,0.1545,0.1543,0.1542,0.1544,0.1544,0.1542,0.1542,0.1541,0.1541,0.1541,0.1541,0,0.1615,0.1611,0.1605,0.1598,0.1596,0.1593,0.1587,0.1584,0.158,0.1574,0.1573,0.1567,0.1561,0.1556,0.1548,0.1545,0.1539,0.1538,0.1541,0.154,0.1538,0.1538,0.1531,0.153,0.1533,0.1533,0.1533,0,0.1614,0.1611,0.1604,0.1601,0.1597,0.1593,0.1589,0.1584,0.1581,0.1574,0.1571,0.1564,0.1559,0.1549,0.1544,0.1538,0.1536,0.1534,0.1535,0.1537,0.1536,0.1536,0.1536,0.1534,0.1534,0.1534,0.1534,0,0.1612,0.161,0.1606,0.16,0.1596,0.1591,0.1586,0.1583,0.1577,0.1573,0.1567,0.1563,0.1555,0.1548,0.1541,0.1537,0.1535,0.1534,0.1533,0.1534,0.1536,0.1535,0.154,0.1534,0.1534,0.1534,0.1534,0.1534,0.1612,0.1609,0.1603,0.1598,0.1593,0.1589,0.1585,0.158,0.1575,0.1568,0.1565,0.1559,0.1552,0.1543,0.1538,0.1533,0.1533,0.1531,0.1531,0.1531,0.1531,0.1537,0.1531,0.1531,0.1531,0.1531,0.1531,0,0.161,0.1606,0.1601,0.1594,0.159,0.1588,0.1582,0.1578,0.1572,0.1567,0.1561,0.1554,0.1547,0.1541,0.1534,0.1531,0.1529,0.1529,0.1529,0.1528,0.1531,0.1533,0.153,0.153,0.153,0.153,0.153,0.153,0.1608,0.1603,0.16,0.1592,0.1588,0.1581,0.1578,0.1573,0.1569,0.1561,0.1555,0.1551,0.1545,0.1537,0.1531,0.1529,0.1527,0.1527,0.1525,0.1528,0.1528,0.1528,0.153,0.1526,0.1526,0.1522,0.1522,0.1522]},{"header":{"parameterUnit":"m.s-1","parameterCategory":1,"la1":30.2991,"la2":30.254,"lo1":-89.0895,"lo2":-89.0444,"dy":0.0017,"dx":0.0017,"nx":28,"ny":28,"refTime":"2025-02-12T09:00:00:Z","depth":0,"parameterNumber":3,"parameterNumberName":"V-component_of_WINDS"},"data":[0,0,0,0,0,0,0,0,0,0,0,0,0,0,0,0,0,0,0,0,0,0,0,0,0,0,0,0,0,0,0,0,0,0,0,0,0,0,0,0,0,0,0,0,0,0,0,0,0,0,0,0,0,0,0,0,0,0,6.1441,6.1443,0,6.1546,6.1548,6.1549,6.1551,6.1549,6.1548,6.1547,6.1653,6.1656,6.166,0,0,0,0,0,0,0,0,0,0,0,0,0,6.1243,6.1246,6.1441,6.1443,6.1444,6.1546,6.1548,6.1549,6.1551,6.1549,6.1548,6.1546,6.1651,6.1656,6.1661,0,0,0,0,0,0,0,0,0,0,0,0,0,6.1336,6.1248,6.1441,6.1457,6.146,6.1546,6.1548,6.1549,6.1551,6.1549,6.1547,6.1545,6.165,6.1656,6.1661,6.1738,0,0,6.168,6.1683,0,0,0,0,0,0,0,0,6.1331,6.1344,6.1454,6.1456,6.1459,6.1533,6.1516,6.1613,6.1552,6.1516,6.1547,6.1544,6.1614,6.1623,6.1647,6.1743,6.1748,6.1681,6.1684,6.1687,6.1689,0,0,0,0,0,0,0,6.1325,6.1339,6.1483,6.1455,6.1459,6.1459,6.147,6.1535,6.1575,6.1519,6.152,6.1532,6.1616,6.1641,6.165,6.1749,6.168,6.1686,6.1689,6.1692,6.1918,6.192,0,0,0,0,0,0,6.1315,6.1334,6.1479,6.1486,6.1389,6.1465,6.1477,6.1512,6.1574,6.1582,6.1534,6.1532,6.1632,6.1643,6.1653,6.175,6.1687,6.1692,6.1696,6.1915,6.1918,6.1921,0,0,0,0,0,0,6.1311,6.1328,6.1475,6.141,6.1429,6.147,6.1509,6.1515,6.154,6.1585,6.1592,6.1553,6.1631,6.1645,6.1718,6.1754,6.1695,6.1701,6.1913,6.1916,6.192,6.1943,0,0,0,0,0,0,6.1305,6.1326,6.1356,6.1411,6.1432,6.1538,6.1511,6.1518,6.1551,6.155,6.1605,6.1612,6.163,6.1709,6.1724,6.1761,6.1705,6.191,6.1914,6.1918,6.1939,6.1947,6.1953,0,0,0,0,0,6.1298,6.1357,6.1357,6.1375,6.147,6.154,6.1552,6.1573,6.1554,6.1584,6.1614,6.161,6.1747,6.1717,6.1734,6.1773,6.1907,6.1913,6.1918,6.1936,6.1945,6.1953,0,0,0,0,0,0,6.1303,6.1364,6.1365,6.1443,6.1487,6.154,6.1579,6.1581,6.163,6.1627,6.1649,6.1661,6.1735,6.1761,6.1726,6.1853,6.1825,6.1834,6.1833,6.1842,6.1849,6.1842,6.171,0,0,0,0,0,6.1313,6.1366,6.1416,6.148,6.1502,6.1537,6.1568,6.158,6.1626,6.1644,6.1678,6.1722,6.1776,6.181,6.1861,6.1943,6.1956,6.1979,6.1986,6.1991,6.1999,6.2048,6.2059,6.1938,6.1938,6.1938,0,0,6.1335,6.1375,6.1406,6.1483,6.1517,6.1572,6.1552,6.1609,6.165,6.1652,6.1725,6.1752,6.1802,6.1881,6.1918,6.1905,6.2036,6.1998,6.2002,6.2007,6.2054,6.2066,6.2076,6.1942,6.1941,6.1941,0,0,6.1403,6.1437,6.1497,6.1533,6.1587,6.161,6.1624,6.1679,6.1697,6.177,6.1774,6.1823,6.1913,6.1951,6.1981,6.2067,6.2068,6.2083,6.2121,6.2168,6.2178,6.2186,6.222,6.2231,6.2091,6.2091,6.2091,0,6.1423,6.1505,6.1526,6.1586,6.162,6.1626,6.1687,6.1721,6.1788,6.1812,6.1798,6.1914,6.1948,6.2038,6.2059,6.2083,6.2101,6.2077,6.2175,6.2183,6.2192,6.2224,6.2236,6.2093,6.2092,6.2092,6.2092,0,6.1529,6.1586,6.1627,6.1695,6.1734,6.1793,6.1824,6.1861,6.1871,6.1896,6.1972,6.2014,6.2076,6.2097,6.2106,6.2189,6.218,6.217,6.2143,6.2205,6.2236,6.2248,6.2095,6.2094,6.2094,6.2094,0,0,6.1601,6.1683,6.1697,6.173,6.1791,6.1836,6.1897,6.1959,6.1991,6.2038,6.2091,6.2169,6.2161,6.2196,6.2209,6.225,6.232,6.2235,6.2237,6.2252,6.2418,6.2427,6.2441,6.232,6.2323,6.2324,6.2415,0,6.1678,6.1787,6.181,6.1904,6.1959,6.1967,6.202,6.2064,6.209,6.2141,6.2169,6.2225,6.2208,6.223,6.2271,6.2303,6.2354,6.2296,6.2371,6.2374,6.236,6.2456,6.2466,6.2548,6.2426,6.2428,6.243,0,6.1781,6.1834,6.1934,6.1992,6.2016,6.2064,6.2124,6.2172,6.2223,6.2239,6.228,6.2289,6.2354,6.2324,6.2415,6.2376,6.2408,6.2428,6.2432,6.2441,6.2407,6.247,6.2575,6.2588,6.2449,6.2447,6.2446,0,6.1828,6.1923,6.1997,6.2024,6.2092,6.2126,6.2156,6.2205,6.2242,6.2295,6.2319,6.2378,6.2411,6.2456,6.2482,6.2457,6.2573,6.2544,6.259,6.2589,6.2614,6.2613,6.2728,6.2632,6.2631,6.2631,6.2631,0,6.1912,6.1974,6.2019,6.2064,6.2135,6.2161,6.223,6.226,6.2304,6.2356,6.2366,6.2415,6.2445,6.2499,6.2519,6.2594,6.2607,6.2624,6.2629,6.2624,6.2622,6.2646,6.2642,6.2635,6.2634,6.2633,6.2633,0,6.1976,6.2008,6.209,6.2149,6.2166,6.2215,6.2267,6.2312,6.2338,6.2405,6.2422,6.2464,6.2528,6.2558,6.2636,6.2651,6.2736,6.2736,6.2719,6.2722,6.2767,6.2763,6.2903,6.2924,6.2812,6.2813,6.2813,0,6.2028,6.2077,6.2142,6.2179,6.2211,6.2268,6.2307,6.2335,6.2375,6.2439,6.2477,6.2541,6.2595,6.2697,6.2735,6.2796,6.2799,6.2844,6.2808,6.2803,6.2803,6.2801,6.2807,6.2851,6.2852,6.2853,6.2853,0,6.2119,6.2134,6.2189,6.2252,6.2298,6.2348,6.2397,6.2426,6.2462,6.2507,6.2573,6.2615,6.2697,6.2762,6.2827,6.2858,6.2863,6.2864,6.2879,6.2875,6.2865,6.2874,6.2739,6.2861,6.286,6.286,6.2859,6.2859,6.218,6.2225,6.228,6.2343,6.2383,6.243,6.2477,6.2511,6.2567,6.2637,6.2649,6.2721,6.2774,6.2861,6.2895,6.2952,6.2942,6.2962,6.2967,6.2972,6.2976,6.2854,6.2963,6.2963,6.2963,6.2963,6.2963,0,6.2274,6.231,6.2368,6.2438,6.2488,6.2489,6.2544,6.2586,6.2649,6.2698,6.2752,6.283,6.2894,6.2938,6.3003,6.3041,6.3045,6.3057,6.3056,6.3064,6.298,6.2963,6.3053,6.3053,6.3053,6.3053,6.3053,6.3053,6.2329,6.2406,6.2428,6.2526,6.2562,6.2633,6.2665,6.2709,6.2749,6.2836,6.289,6.2919,6.2967,6.3037,6.3096,6.3108,6.3132,6.3145,6.3157,6.3078,6.3069,6.306,6.3044,6.315,6.315,6.3236,6.3237,6.3238]}]]